Skip Page Navigation
NASA JPL Caltech
NASA Logo - Jet Propulsion Laboratory + View the NASA Portal
+ Center for Near-Earth Object Studies
JPL Home Earth Solar System Stars & Galaxies Technology
JPL Solar System Dynamics
BODIES ORBITS EPHEMERIDES TOOLS PHYSICAL DATA DISCOVERY FAQ SITE MAP
JPL Small-Body Database Browser
Search: [ help ]  
88699 (2001 RW142)
Classification: Main-belt Asteroid          SPK-ID: 2088699
Ephemeris | Orbit Diagram | Orbital Elements | Mission Design | Physical Parameters | Discovery Circumstances ]

[ show orbit diagram ]
Orbital Elements at Epoch 2459000.5 (2020-May-31.0) TDB
Reference: JPL 22 (heliocentric ecliptic J2000)
 Element Value Uncertainty (1-sigma)   Units 
e .2061955581196769 3.6314e-08  
a 2.27372301404853 6.8287e-09 au
q 1.80489142815724 8.2414e-08 au
i 7.184475173568273 3.4913e-06 deg
node 119.2506490048102 3.2537e-05 deg
peri 239.8453235547384 3.3633e-05 deg
M 183.3940228713503 8.2935e-06 deg
tp 2459614.838397435561
(2022-Feb-04.33839744)
2.9685e-05 TDB
period 1252.289569540985
3.43
5.6415e-06
1.545e-08
d
yr
n .2874734476403525 1.2951e-09 deg/d
Q 2.742554599939821 8.2367e-09 au
  Orbit Determination Parameters
   # obs. used (total)      970  
   data-arc span      7762 days (21.25 yr)  
   first obs. used      1999-01-15  
   last obs. used      2020-04-16  
   planetary ephem.      DE431  
   SB-pert. ephem.      SB431-N16  
   condition code      0  
   norm. resid. RMS      .50278  
   source      ORB  
   producer      Otto Matic  
   solution date      2020-Nov-12 20:49:27  

Additional Information
 Earth MOID = .81317 au 
 Jupiter MOID = 2.72059 au 
 T_jup = 3.572 
[ hide covariance matrix ]
Orbital Elements at Epoch 2457023.5 (2015-Jan-01.0) TDB
Reference: JPL 22 (heliocentric ecliptic J2000)
 Element Value Uncertainty (1-sigma)   Units 
e .2064758981295746 3.6352e-08  
q 1.804495709873185 8.2519e-08 au
tp 2457108.075495308501
(2015-Mar-26.57549531)
2.7654e-05 TDB
node 119.3544722897713 3.2506e-05 deg
peri 239.3821548700984 3.3596e-05 deg
i 7.187563190458882 3.4936e-06 deg
  Orbit Determination Parameters
   # obs. used (total)      970  
   data-arc span      7762 days (21.25 yr)  
   first obs. used      1999-01-15  
   last obs. used      2020-04-16  
   planetary ephem.      DE431  
   SB-pert. ephem.      SB431-N16  
   condition code      0  
   norm. resid. RMS      .50278  
   source      ORB  
   producer      Otto Matic  
   solution date      2020-Nov-12 20:49:27  

Additional Information
 Jupiter MOID = 2.72059 au 
 T_jup = 3.572 
Orbit Covariance (6×6)
  e q tp node peri i
e 1.321473342600528E-15 -2.993358615580239E-15 1.422665511754024E-13 2.075761283560373E-14 3.125344840793339E-14 -4.481140727759442E-15
q -2.993358615580239E-15 6.809407543490164E-15 -3.260079882344317E-13 -4.592152586589008E-14 -7.459137561423314E-14 1.030994661586184E-14
tp 1.422665511754024E-13 -3.260079882344317E-13 7.647170204894183E-10 2.286678312032694E-12 2.497388592739396E-10 -4.638838710210671E-13
node 2.075761283560373E-14 -4.592152586589008E-14 2.286678312032694E-12 1.056651649503743E-9 -1.047326088290486E-9 1.152955799116325E-11
peri 3.125344840793339E-14 -7.459137561423314E-14 2.497388592739396E-10 -1.047326088290486E-9 1.128693956146227E-9 -1.164824956566373E-11
i -4.481140727759442E-15 1.030994661586184E-14 -4.638838710210671E-13 1.152955799116325E-11 -1.164824956566373E-11 1.220535428884335E-11

Ephemeris | Orbit Diagram | Orbital Elements | Mission Design | Physical Parameters | Discovery Circumstances ]

Physical Parameter Table
Parameter Symbol Value Units Sigma Reference Notes
absolute magnitude H 15.9   n/a MPO468867  
diameter diameter 2.616 km 0.410 urn:nasa:pds:neowise_diameters_albedos::2.0[mainbelt] (http://adsabs.harvard.edu/abs/2011ApJ...741...68M)  
geometric albedo albedo 0.094   0.050 urn:nasa:pds:neowise_diameters_albedos::2.0[mainbelt] (http://adsabs.harvard.edu/abs/2011ApJ...741...68M)  

88699 (2001 RW142)          Discovered 2001-Sep-14 by NEAT at Palomar
Reference: 20040830/Numbers.arcLast Updated: 2004-09-06

Alternate Designations
 2001 RW142 = 1999 AK33 
Ephemeris | Orbit Diagram | Orbital Elements | Mission Design | Physical Parameters | Discovery Circumstances ]
ABOUT SSD CREDITS/AWARDS PRIVACY/COPYRIGHT GLOSSARY LINKS
FirstGov 2020-Dec-04 03:15 UT
(server date/time)  
NASA Home Page
Site Manager:   Ryan S. Park
Webmaster  Alan B. Chamberlin